LNE1449 SPJC-SEGU

Flight info

Callsign LNE1449
Flight time 1h 42m
Altitude 38000
Route ISREN UL780 EVRED EVRED2
Aircraft A319/M-SDE3FGHIRWY/LB1

Departure

Time 2026-05-05 09:08
Airport Jorge Chávez International Airport (SPJC)

Arrival

Time 2026-05-05 10:50
Airport José Joaquín de Olmedo International Airport (SEGU)
Time Latitude Longitude Altitude Speed Heading
2026-05-05 08:46 -12.02720 -77.11827 81 ft 0 kts 64°
2026-05-05 08:55 -12.02722 -77.11832 80 ft 2 kts 64°
2026-05-05 08:55 -12.02731 -77.11849 91 ft 3 kts 61°
2026-05-05 08:55 -12.02741 -77.11867 84 ft 3 kts 57°
2026-05-05 08:55 -12.02752 -77.11884 84 ft 3 kts 48°
2026-05-05 08:56 -12.02767 -77.11897 84 ft 3 kts 26°
2026-05-05 08:56 -12.02782 -77.11902 84 ft 2 kts 340°
2026-05-05 08:56 -12.02789 -77.11899 81 ft 1 kts 334°
2026-05-05 08:58 -12.02786 -77.11900 83 ft 1 kts 334°
2026-05-05 08:59 -12.02769 -77.11909 83 ft 4 kts 334°
2026-05-05 08:59 -12.02734 -77.11926 82 ft 7 kts 334°
2026-05-05 08:59 -12.02681 -77.11952 81 ft 10 kts 334°
2026-05-05 08:59 -12.02614 -77.11985 81 ft 12 kts 334°
2026-05-05 09:00 -12.02546 -77.12036 80 ft 13 kts 283°
2026-05-05 09:00 -12.02593 -77.12146 65 ft 19 kts 250°
2026-05-05 09:00 -12.02513 -77.12214 59 ft 17 kts 335°
2026-05-05 09:00 -12.02410 -77.12266 62 ft 19 kts 333°
2026-05-05 09:01 -12.02292 -77.12323 55 ft 19 kts 335°
2026-05-05 09:01 -12.02178 -77.12378 51 ft 18 kts 333°
2026-05-05 09:01 -12.02089 -77.12367 51 ft 14 kts 63°
2026-05-05 09:01 -12.02046 -77.12276 54 ft 14 kts 64°
2026-05-05 09:02 -12.02007 -77.12195 55 ft 13 kts 64°
2026-05-05 09:02 -12.01969 -77.12111 57 ft 13 kts 64°
2026-05-05 09:02 -12.01927 -77.12026 57 ft 14 kts 63°
2026-05-05 09:02 -12.01886 -77.11936 61 ft 14 kts 65°
2026-05-05 09:03 -12.01844 -77.11849 59 ft 14 kts 64°
2026-05-05 09:03 -12.01775 -77.11809 61 ft 13 kts 330°
2026-05-05 09:03 -12.01680 -77.11862 65 ft 18 kts 333°
2026-05-05 09:03 -12.01550 -77.11927 65 ft 23 kts 333°
2026-05-05 09:04 -12.01404 -77.11998 56 ft 23 kts 334°
2026-05-05 09:04 -12.01266 -77.12091 59 ft 25 kts 309°
2026-05-05 09:04 -12.01144 -77.12193 53 ft 17 kts 333°
2026-05-05 09:04 -12.01028 -77.12250 52 ft 18 kts 334°
2026-05-05 09:05 -12.00946 -77.12291 51 ft 14 kts 334°
2026-05-05 09:05 -12.00868 -77.12315 51 ft 12 kts
2026-05-05 09:05 -12.00828 -77.12245 52 ft 12 kts 64°
2026-05-05 09:05 -12.00787 -77.12157 52 ft 15 kts 66°
2026-05-05 09:06 -12.00818 -77.12108 52 ft 9 kts 155°
2026-05-05 09:06 -12.00820 -77.12107 52 ft 0 kts 155°
2026-05-05 09:07 -12.00826 -77.12104 52 ft 5 kts 155°
2026-05-05 09:07 -12.01010 -77.12013 55 ft 58 kts 154°
2026-05-05 09:07 -12.01548 -77.11749 65 ft 113 kts 154°
2026-05-05 09:07 -12.02411 -77.11324 119 ft 156 kts 155°
2026-05-05 09:08 -12.03340 -77.10854 793 ft 144 kts 153°
2026-05-05 09:08 -12.04245 -77.10390 1326 ft 148 kts 153°
2026-05-05 09:08 -12.05196 -77.09910 1781 ft 156 kts 154°
2026-05-05 09:08 -12.06185 -77.09414 2263 ft 161 kts 154°
2026-05-05 09:09 -12.07214 -77.08908 2751 ft 168 kts 154°
2026-05-05 09:09 -12.08338 -77.08364 3061 ft 190 kts 155°
2026-05-05 09:09 -12.09605 -77.07751 3347 ft 213 kts 154°
2026-05-05 09:09 -12.11012 -77.07066 3671 ft 235 kts 154°
2026-05-05 09:10 -12.12568 -77.06309 4063 ft 260 kts 156°
2026-05-05 09:10 -12.14367 -77.05992 4658 ft 275 kts 189°
2026-05-05 09:10 -12.16100 -77.06793 5470 ft 279 kts 223°
2026-05-05 09:10 -12.17119 -77.08453 6315 ft 280 kts 257°
2026-05-05 09:11 -12.17231 -77.10439 7125 ft 282 kts 277°
2026-05-05 09:11 -12.16918 -77.12425 7951 ft 284 kts 283°
2026-05-05 09:11 -12.16506 -77.14411 8760 ft 288 kts 283°
2026-05-05 09:11 -12.16127 -77.16436 9545 ft 292 kts 281°
2026-05-05 09:12 -12.15912 -77.17827 10050 ft 294 kts 279°
2026-05-05 09:12 -12.15571 -77.20702 10404 ft 323 kts 276°
2026-05-05 09:12 -12.15427 -77.22271 10671 ft 331 kts 277°
2026-05-05 09:12 -12.14942 -77.24554 11229 ft 336 kts 290°
2026-05-05 09:13 -12.13920 -77.26709 11832 ft 339 kts 304°
2026-05-05 09:13 -12.12392 -77.28552 12453 ft 342 kts 318°
2026-05-05 09:13 -12.10469 -77.30007 13039 ft 347 kts 326°
2026-05-05 09:13 -12.08455 -77.31403 13625 ft 352 kts 327°
2026-05-05 09:14 -12.06416 -77.32818 14168 ft 356 kts 326°
2026-05-05 09:14 -12.04361 -77.34250 14720 ft 359 kts 327°
2026-05-05 09:14 -12.02293 -77.35695 15275 ft 362 kts 327°
2026-05-05 09:14 -12.00207 -77.37155 15831 ft 365 kts 327°
2026-05-05 09:15 -11.98106 -77.38625 16381 ft 367 kts 327°
2026-05-05 09:15 -11.95989 -77.40104 16928 ft 370 kts 327°
2026-05-05 09:15 -11.93851 -77.41597 17479 ft 373 kts 328°
2026-05-05 09:15 -11.91695 -77.43102 18024 ft 376 kts 328°
2026-05-05 09:16 -11.89524 -77.44617 18532 ft 379 kts 328°
2026-05-05 09:16 -11.87340 -77.46141 18994 ft 382 kts 328°
2026-05-05 09:16 -11.85139 -77.47677 19469 ft 384 kts 327°
2026-05-05 09:16 -11.82927 -77.49223 19948 ft 387 kts 327°
2026-05-05 09:17 -11.80701 -77.50777 20427 ft 389 kts 327°
2026-05-05 09:17 -11.78482 -77.52328 20898 ft 392 kts 327°
2026-05-05 09:17 -11.76205 -77.53868 21367 ft 394 kts 328°
2026-05-05 09:17 -11.73862 -77.55347 21816 ft 397 kts 330°
2026-05-05 09:18 -11.71481 -77.56789 22273 ft 400 kts 330°
2026-05-05 09:18 -11.69074 -77.58225 22724 ft 402 kts 330°
2026-05-05 09:18 -11.66651 -77.59673 23176 ft 405 kts 330°
2026-05-05 09:18 -11.64213 -77.61141 23602 ft 408 kts 330°
2026-05-05 09:19 -11.61765 -77.62629 23975 ft 410 kts 330°
2026-05-05 09:19 -11.59311 -77.64130 24360 ft 412 kts 329°
2026-05-05 09:19 -11.56853 -77.65642 24750 ft 413 kts 329°
2026-05-05 09:19 -11.54391 -77.67160 25136 ft 415 kts 329°
2026-05-05 09:20 -11.51915 -77.68683 25521 ft 416 kts 330°
2026-05-05 09:20 -11.49423 -77.70209 25905 ft 417 kts 330°
2026-05-05 09:20 -11.46932 -77.71733 26284 ft 418 kts 330°
2026-05-05 09:20 -11.44463 -77.73244 26659 ft 420 kts 330°
2026-05-05 09:21 -11.41954 -77.74778 27032 ft 421 kts 330°
2026-05-05 09:21 -11.39438 -77.76316 27398 ft 422 kts 330°
2026-05-05 09:21 -11.36912 -77.77859 27760 ft 424 kts 330°
2026-05-05 09:21 -11.34379 -77.79407 28127 ft 425 kts 330°
2026-05-05 09:22 -11.31832 -77.80966 28493 ft 427 kts 330°
2026-05-05 09:22 -11.29283 -77.82527 28857 ft 428 kts 330°
2026-05-05 09:22 -11.26727 -77.84095 29214 ft 430 kts 330°
2026-05-05 09:22 -11.24163 -77.85670 29574 ft 431 kts 330°
2026-05-05 09:23 -11.21587 -77.87248 29921 ft 433 kts 330°
2026-05-05 09:23 -11.19000 -77.88829 30231 ft 434 kts 330°
2026-05-05 09:23 -11.16403 -77.90416 30522 ft 436 kts 330°
2026-05-05 09:23 -11.13800 -77.92003 30808 ft 437 kts 330°
2026-05-05 09:24 -11.11187 -77.93595 31089 ft 439 kts 330°
2026-05-05 09:24 -11.08561 -77.95197 31369 ft 440 kts 330°
2026-05-05 09:24 -11.05929 -77.96799 31632 ft 442 kts 331°
2026-05-05 09:24 -11.03251 -77.98328 31992 ft 440 kts 333°
2026-05-05 09:25 -11.00543 -77.99772 32387 ft 439 kts 334°
2026-05-05 09:25 -10.97853 -78.01149 32779 ft 437 kts 335°
2026-05-05 09:25 -10.95132 -78.02524 33184 ft 436 kts 335°
2026-05-05 09:25 -10.92415 -78.03902 33602 ft 435 kts 335°
2026-05-05 09:26 -10.89718 -78.05285 34011 ft 434 kts 335°
2026-05-05 09:26 -10.87033 -78.06680 34348 ft 433 kts 334°
2026-05-05 09:26 -10.84357 -78.08083 34669 ft 433 kts 334°
2026-05-05 09:26 -10.81681 -78.09495 34986 ft 432 kts 333°
2026-05-05 09:27 -10.79013 -78.10904 35291 ft 432 kts 333°
2026-05-05 09:27 -10.76348 -78.12312 35603 ft 431 kts 333°
2026-05-05 09:27 -10.73684 -78.13713 35900 ft 431 kts 333°
2026-05-05 09:27 -10.71019 -78.15109 36209 ft 430 kts 333°
2026-05-05 09:28 -10.68358 -78.16501 36489 ft 430 kts 333°
2026-05-05 09:28 -10.65698 -78.17894 36777 ft 430 kts 332°
2026-05-05 09:28 -10.63044 -78.19283 37061 ft 429 kts 332°
2026-05-05 09:28 -10.60424 -78.20654 37341 ft 428 kts 332°
2026-05-05 09:29 -10.57771 -78.22041 37629 ft 428 kts 332°
2026-05-05 09:29 -10.55124 -78.23425 37884 ft 428 kts 332°
2026-05-05 09:29 -10.52479 -78.24809 37969 ft 428 kts 331°
2026-05-05 09:30 -10.47185 -78.27582 37967 ft 428 kts 331°
2026-05-05 09:30 -10.41895 -78.30353 37967 ft 428 kts 331°
2026-05-05 09:31 -10.36601 -78.33117 37970 ft 428 kts 331°
2026-05-05 09:31 -10.31313 -78.35882 37972 ft 427 kts 331°
2026-05-05 09:32 -10.26027 -78.38646 37966 ft 427 kts 331°
2026-05-05 09:32 -10.20735 -78.41398 37972 ft 427 kts 331°
2026-05-05 09:33 -10.15449 -78.44157 37967 ft 427 kts 331°
2026-05-05 09:33 -10.10156 -78.46923 37973 ft 427 kts 331°
2026-05-05 09:34 -10.04867 -78.49684 37974 ft 427 kts 331°
2026-05-05 09:34 -9.99607 -78.52418 37972 ft 427 kts 331°
2026-05-05 09:35 -9.94313 -78.55178 37969 ft 428 kts 331°
2026-05-05 09:35 -9.86369 -78.59325 37967 ft 428 kts 331°
2026-05-05 09:36 -9.81069 -78.62086 37972 ft 428 kts 331°
2026-05-05 09:36 -9.75768 -78.64841 37962 ft 428 kts 331°
2026-05-05 09:37 -9.70430 -78.67518 37965 ft 429 kts 337°
2026-05-05 09:37 -9.64680 -78.69200 37964 ft 431 kts 343°
2026-05-05 09:38 -9.58881 -78.70769 37955 ft 432 kts 343°
2026-05-05 09:38 -9.53073 -78.72342 37948 ft 432 kts 343°
2026-05-05 09:39 -9.47296 -78.73909 37954 ft 433 kts 343°
2026-05-05 09:39 -9.41471 -78.75487 37958 ft 433 kts 343°
2026-05-05 09:40 -9.35634 -78.77054 37963 ft 434 kts 343°
2026-05-05 09:40 -9.29804 -78.78626 37964 ft 434 kts 343°
2026-05-05 09:41 -9.23977 -78.80207 37967 ft 433 kts 343°
2026-05-05 09:41 -9.18163 -78.81784 37965 ft 432 kts 343°
2026-05-05 09:42 -9.12355 -78.83353 37965 ft 432 kts 343°
2026-05-05 09:42 -9.06543 -78.84919 37968 ft 432 kts 343°
2026-05-05 09:43 -9.00735 -78.86484 37967 ft 432 kts 343°
2026-05-05 09:43 -8.94969 -78.88040 37963 ft 432 kts 343°
2026-05-05 09:44 -8.89161 -78.89609 37958 ft 432 kts 343°
2026-05-05 09:44 -8.83356 -78.91181 37963 ft 432 kts 343°
2026-05-05 09:45 -8.77540 -78.92747 37963 ft 433 kts 343°
2026-05-05 09:45 -8.71717 -78.94308 37964 ft 433 kts 343°
2026-05-05 09:46 -8.65899 -78.95876 37959 ft 433 kts 343°
2026-05-05 09:46 -8.60079 -78.97444 37963 ft 432 kts 343°
2026-05-05 09:47 -8.54267 -78.99008 37955 ft 432 kts 343°
2026-05-05 09:47 -8.48441 -79.00578 37944 ft 433 kts 343°
2026-05-05 09:48 -8.42612 -79.02148 37944 ft 434 kts 343°
2026-05-05 09:48 -8.36769 -79.03719 37936 ft 434 kts 343°
2026-05-05 09:49 -8.30920 -79.05295 37937 ft 434 kts 343°
2026-05-05 09:49 -8.25080 -79.06867 37944 ft 434 kts 343°
2026-05-05 09:50 -8.19280 -79.08416 37952 ft 433 kts 344°
2026-05-05 09:50 -8.13448 -79.09979 37948 ft 434 kts 344°
2026-05-05 09:51 -8.07624 -79.11392 37935 ft 435 kts 351°
2026-05-05 09:51 -8.01556 -79.12162 37944 ft 436 kts 351°
2026-05-05 09:52 -7.95538 -79.12921 37938 ft 436 kts 351°
2026-05-05 09:52 -7.89511 -79.13679 37953 ft 436 kts 351°
2026-05-05 09:53 -7.83522 -79.14436 37943 ft 436 kts 351°
2026-05-05 09:53 -7.77500 -79.15197 37945 ft 436 kts 351°
2026-05-05 09:54 -7.71470 -79.15955 37962 ft 436 kts 351°
2026-05-05 09:54 -7.65454 -79.16713 37959 ft 436 kts 351°
2026-05-05 09:55 -7.59432 -79.17477 37963 ft 436 kts 351°
2026-05-05 09:55 -7.53398 -79.18241 37964 ft 436 kts 351°
2026-05-05 09:56 -7.47374 -79.19001 37969 ft 437 kts 351°
2026-05-05 09:56 -7.41333 -79.19762 37969 ft 437 kts 352°
2026-05-05 09:57 -7.35331 -79.20517 37970 ft 438 kts 352°
2026-05-05 09:57 -7.29277 -79.21280 37987 ft 438 kts 352°
2026-05-05 09:58 -7.23214 -79.22042 37987 ft 438 kts 352°
2026-05-05 09:58 -7.17157 -79.22802 37999 ft 439 kts 352°
2026-05-05 09:59 -7.11096 -79.23566 38010 ft 439 kts 352°
2026-05-05 09:59 -7.05038 -79.24328 38022 ft 439 kts 352°
2026-05-05 10:00 -7.00004 -79.24960 38028 ft 438 kts 352°
2026-05-05 10:00 -6.92974 -79.25853 38028 ft 437 kts 352°
2026-05-05 10:01 -6.87908 -79.26497 38026 ft 437 kts 352°
2026-05-05 10:01 -6.81908 -79.27248 38033 ft 437 kts 352°
2026-05-05 10:02 -6.75871 -79.28004 37999 ft 437 kts 352°
2026-05-05 10:02 -6.69840 -79.28764 38012 ft 436 kts 352°
2026-05-05 10:03 -6.63820 -79.29521 38011 ft 436 kts 352°
2026-05-05 10:03 -6.57804 -79.30272 38013 ft 436 kts 352°
2026-05-05 10:04 -6.51787 -79.31026 38029 ft 435 kts 352°
2026-05-05 10:04 -6.45773 -79.31786 38026 ft 436 kts 352°
2026-05-05 10:05 -6.39759 -79.32547 38053 ft 435 kts 352°
2026-05-05 10:05 -6.33749 -79.33297 38045 ft 435 kts 352°
2026-05-05 10:06 -6.27748 -79.34044 38067 ft 434 kts 353°
2026-05-05 10:06 -6.21749 -79.34800 38070 ft 434 kts 352°
2026-05-05 10:07 -6.15758 -79.35553 38063 ft 434 kts 352°
2026-05-05 10:07 -6.09802 -79.36300 38081 ft 434 kts 352°
2026-05-05 10:08 -6.03802 -79.37049 38076 ft 434 kts 352°
2026-05-05 10:08 -5.97808 -79.37797 38079 ft 434 kts 353°
2026-05-05 10:09 -5.91812 -79.38555 38088 ft 434 kts 352°
2026-05-05 10:09 -5.85818 -79.39313 38085 ft 434 kts 353°
2026-05-05 10:10 -5.79833 -79.40060 38087 ft 433 kts 353°
2026-05-05 10:10 -5.73844 -79.40804 38085 ft 434 kts 353°
2026-05-05 10:11 -5.67858 -79.41555 38088 ft 433 kts 353°
2026-05-05 10:11 -5.61874 -79.42316 38091 ft 433 kts 353°
2026-05-05 10:12 -5.55884 -79.43065 38045 ft 434 kts 353°
2026-05-05 10:12 -5.49884 -79.43808 38053 ft 435 kts 353°
2026-05-05 10:13 -5.43877 -79.44554 38056 ft 435 kts 353°
2026-05-05 10:13 -5.37862 -79.45309 38068 ft 436 kts 352°
2026-05-05 10:14 -5.31845 -79.46065 38082 ft 436 kts 353°
2026-05-05 10:14 -5.25816 -79.46819 38079 ft 436 kts 352°
2026-05-05 10:15 -5.19846 -79.47564 38101 ft 435 kts 353°
2026-05-05 10:15 -5.13851 -79.48312 38111 ft 433 kts 352°
2026-05-05 10:16 -5.07876 -79.49061 38102 ft 432 kts 353°
2026-05-05 10:16 -5.01909 -79.49797 38106 ft 431 kts 353°
2026-05-05 10:17 -4.95949 -79.50545 38101 ft 431 kts 352°
2026-05-05 10:17 -4.90001 -79.51294 38097 ft 431 kts 352°
2026-05-05 10:18 -4.84054 -79.52041 38087 ft 430 kts 353°
2026-05-05 10:18 -4.78104 -79.52777 38064 ft 431 kts 353°
2026-05-05 10:19 -4.72150 -79.53511 38061 ft 431 kts 353°
2026-05-05 10:19 -4.66185 -79.54263 38062 ft 432 kts 353°
2026-05-05 10:20 -4.60223 -79.55009 38048 ft 432 kts 353°
2026-05-05 10:20 -4.54256 -79.55753 38049 ft 432 kts 353°
2026-05-05 10:21 -4.48328 -79.56495 38047 ft 432 kts 353°
2026-05-05 10:21 -4.42376 -79.57258 38052 ft 431 kts 353°
2026-05-05 10:22 -4.36434 -79.58030 38029 ft 430 kts 352°
2026-05-05 10:22 -4.30496 -79.58793 38023 ft 430 kts 353°
2026-05-05 10:23 -4.24567 -79.59551 38018 ft 429 kts 353°
2026-05-05 10:23 -4.18643 -79.60315 38016 ft 429 kts 353°
2026-05-05 10:24 -4.12731 -79.61077 38017 ft 428 kts 353°
2026-05-05 10:24 -4.06825 -79.61838 38005 ft 428 kts 353°
2026-05-05 10:25 -4.00949 -79.62591 38017 ft 427 kts 353°
2026-05-05 10:25 -3.95050 -79.63343 38014 ft 427 kts 353°
2026-05-05 10:26 -3.89123 -79.64101 36880 ft 439 kts 353°
2026-05-05 10:26 -3.86044 -79.64496 35893 ft 451 kts 354°
2026-05-05 10:26 -3.82927 -79.64898 35201 ft 453 kts 354°
2026-05-05 10:27 -3.79810 -79.65298 34519 ft 449 kts 355°
2026-05-05 10:27 -3.76720 -79.65694 33678 ft 445 kts 355°
2026-05-05 10:27 -3.73661 -79.66086 32799 ft 441 kts 355°
2026-05-05 10:27 -3.70653 -79.66471 32221 ft 431 kts 355°
2026-05-05 10:28 -3.67692 -79.66850 31770 ft 427 kts 355°
2026-05-05 10:28 -3.64761 -79.67225 31323 ft 424 kts 355°
2026-05-05 10:28 -3.61844 -79.67599 30883 ft 421 kts 355°
2026-05-05 10:28 -3.58952 -79.67970 30439 ft 418 kts 355°
2026-05-05 10:29 -3.56076 -79.68340 30001 ft 415 kts 355°
2026-05-05 10:29 -3.53224 -79.68705 29556 ft 411 kts 354°
2026-05-05 10:29 -3.50400 -79.69065 29150 ft 406 kts 354°
2026-05-05 10:29 -3.47609 -79.69424 28754 ft 402 kts 354°
2026-05-05 10:30 -3.44851 -79.69782 28368 ft 398 kts 354°
2026-05-05 10:30 -3.42118 -79.70134 27989 ft 394 kts 354°
2026-05-05 10:30 -3.39406 -79.70480 27597 ft 392 kts 354°
2026-05-05 10:30 -3.36704 -79.70824 27209 ft 390 kts 355°
2026-05-05 10:31 -3.34025 -79.71165 26813 ft 387 kts 355°
2026-05-05 10:31 -3.31362 -79.71504 26413 ft 385 kts 354°
2026-05-05 10:31 -3.28716 -79.71843 26016 ft 382 kts 355°
2026-05-05 10:31 -3.26084 -79.72180 25605 ft 380 kts 354°
2026-05-05 10:32 -3.23469 -79.72514 25149 ft 378 kts 354°
2026-05-05 10:32 -3.20865 -79.72846 24734 ft 376 kts 354°
2026-05-05 10:32 -3.18270 -79.73176 24307 ft 375 kts 354°
2026-05-05 10:32 -3.15685 -79.73510 23885 ft 374 kts 353°
2026-05-05 10:33 -3.13106 -79.73844 23431 ft 373 kts 353°
2026-05-05 10:33 -3.10540 -79.74176 22964 ft 370 kts 353°
2026-05-05 10:33 -3.08004 -79.74503 22539 ft 366 kts 353°
2026-05-05 10:33 -3.05491 -79.74825 22118 ft 362 kts 353°
2026-05-05 10:34 -3.03031 -79.75137 21716 ft 359 kts 353°
2026-05-05 10:34 -3.00564 -79.75449 21291 ft 356 kts 354°
2026-05-05 10:34 -2.98118 -79.75760 20869 ft 353 kts 354°
2026-05-05 10:34 -2.95687 -79.76070 20459 ft 351 kts 354°
2026-05-05 10:35 -2.93275 -79.76379 20054 ft 349 kts 354°
2026-05-05 10:35 -2.90874 -79.76688 19646 ft 347 kts 354°
2026-05-05 10:35 -2.88489 -79.76995 19240 ft 345 kts 354°
2026-05-05 10:35 -2.86113 -79.77300 18836 ft 344 kts 354°
2026-05-05 10:36 -2.83745 -79.77604 18419 ft 342 kts 354°
2026-05-05 10:36 -2.81388 -79.77907 17982 ft 341 kts 354°
2026-05-05 10:36 -2.79038 -79.78199 17559 ft 338 kts 355°
2026-05-05 10:36 -2.76706 -79.78418 17169 ft 335 kts 357°
2026-05-05 10:37 -2.74384 -79.78587 16773 ft 332 kts 358°
2026-05-05 10:37 -2.72085 -79.78737 16381 ft 330 kts 358°
2026-05-05 10:37 -2.69799 -79.78887 15981 ft 328 kts 358°
2026-05-05 10:37 -2.67531 -79.79039 15595 ft 326 kts 358°
2026-05-05 10:38 -2.65277 -79.79195 15213 ft 324 kts 358°
2026-05-05 10:38 -2.63030 -79.79356 14829 ft 323 kts 357°
2026-05-05 10:38 -2.60798 -79.79522 14453 ft 322 kts 358°
2026-05-05 10:38 -2.58569 -79.79689 14071 ft 321 kts 357°
2026-05-05 10:39 -2.56344 -79.79854 13690 ft 320 kts 357°
2026-05-05 10:39 -2.54127 -79.80019 13269 ft 319 kts 357°
2026-05-05 10:39 -2.51920 -79.80186 12889 ft 317 kts 357°
2026-05-05 10:39 -2.49761 -79.80349 12514 ft 315 kts 357°
2026-05-05 10:40 -2.47583 -79.80515 12144 ft 313 kts 357°
2026-05-05 10:40 -2.45414 -79.80679 11773 ft 311 kts 357°
2026-05-05 10:40 -2.43259 -79.80843 11396 ft 310 kts 357°
2026-05-05 10:40 -2.41114 -79.81004 11027 ft 308 kts 357°
2026-05-05 10:41 -2.38981 -79.81165 10650 ft 307 kts 357°
2026-05-05 10:41 -2.36855 -79.81325 10281 ft 305 kts 357°
2026-05-05 10:41 -2.34739 -79.81481 9915 ft 304 kts 357°
2026-05-05 10:41 -2.32640 -79.81637 9607 ft 300 kts 357°
2026-05-05 10:42 -2.28486 -79.81943 8808 ft 298 kts 357°
2026-05-05 10:42 -2.26429 -79.82096 8461 ft 296 kts 356°
2026-05-05 10:42 -2.24377 -79.82245 8086 ft 294 kts 358°
2026-05-05 10:43 -2.22354 -79.82082 7722 ft 291 kts 13°
2026-05-05 10:43 -2.20464 -79.81394 7360 ft 289 kts 29°
2026-05-05 10:43 -2.18724 -79.80395 6996 ft 288 kts 31°
2026-05-05 10:43 -2.16988 -79.79395 6622 ft 288 kts 30°
2026-05-05 10:44 -2.15274 -79.78416 6250 ft 287 kts 30°
2026-05-05 10:44 -2.13517 -79.77415 5862 ft 287 kts 30°
2026-05-05 10:44 -2.11787 -79.76432 5491 ft 285 kts 30°
2026-05-05 10:44 -2.10091 -79.75463 5148 ft 284 kts 30°
2026-05-05 10:45 -2.08380 -79.74486 4785 ft 283 kts 30°
2026-05-05 10:45 -2.06552 -79.73864 4541 ft 275 kts
2026-05-05 10:45 -2.04797 -79.74321 4411 ft 255 kts 325°
2026-05-05 10:45 -2.03760 -79.75630 4281 ft 234 kts 287°
2026-05-05 10:46 -2.03426 -79.77162 4084 ft 220 kts 280°
2026-05-05 10:46 -2.03122 -79.78646 3698 ft 217 kts 281°
2026-05-05 10:46 -2.03003 -79.80132 3260 ft 214 kts 256°
2026-05-05 10:46 -2.03716 -79.81384 2823 ft 209 kts 219°
2026-05-05 10:47 -2.04515 -79.81919 2493 ft 210 kts 210°
2026-05-05 10:47 -2.05801 -79.82646 2071 ft 212 kts 209°
2026-05-05 10:47 -2.07049 -79.83356 1757 ft 201 kts 210°
2026-05-05 10:47 -2.08218 -79.84028 1535 ft 186 kts 209°
2026-05-05 10:48 -2.09301 -79.84652 1268 ft 174 kts 210°
2026-05-05 10:48 -2.10313 -79.85235 1046 ft 161 kts 210°
2026-05-05 10:48 -2.11245 -79.85774 822 ft 148 kts 210°
2026-05-05 10:48 -2.12110 -79.86273 642 ft 140 kts 209°
2026-05-05 10:49 -2.12940 -79.86755 474 ft 136 kts 210°
2026-05-05 10:49 -2.13761 -79.87225 319 ft 135 kts 209°
2026-05-05 10:49 -2.14571 -79.87695 131 ft 134 kts 209°
2026-05-05 10:49 -2.15368 -79.88150 28 ft 125 kts 210°
2026-05-05 10:50 -2.16012 -79.88520 27 ft 83 kts 210°
2026-05-05 10:50 -2.16312 -79.88695 28 ft 15 kts 211°
2026-05-05 10:50 -2.16325 -79.88780 28 ft 13 kts 303°
2026-05-05 10:50 -2.16246 -79.88770 28 ft 13 kts 32°
2026-05-05 10:51 -2.16161 -79.88717 29 ft 15 kts 30°
2026-05-05 10:51 -2.16061 -79.88659 29 ft 18 kts 29°
2026-05-05 10:51 -2.15951 -79.88596 28 ft 15 kts 30°
2026-05-05 10:51 -2.15867 -79.88547 28 ft 14 kts 30°
2026-05-05 10:52 -2.15777 -79.88495 28 ft 16 kts 30°
2026-05-05 10:52 -2.15671 -79.88436 28 ft 19 kts 28°
2026-05-05 10:52 -2.15548 -79.88370 28 ft 20 kts 32°
2026-05-05 10:52 -2.15490 -79.88330 28 ft 10 kts 34°
2026-05-05 10:53 -2.15424 -79.88292 28 ft 12 kts 26°
2026-05-05 10:53 -2.15352 -79.88250 28 ft 12 kts 33°
2026-05-05 10:53 -2.15272 -79.88221 28 ft 13 kts 345°
2026-05-05 10:53 -2.15220 -79.88298 29 ft 14 kts 299°
2026-05-05 10:54 -2.15182 -79.88366 29 ft 10 kts 300°
2026-05-05 10:54 -2.15125 -79.88391 29 ft 10 kts 27°
2026-05-05 10:54 -2.15076 -79.88367 29 ft 8 kts
2026-05-05 10:54 -2.15050 -79.88399 29 ft 4 kts 300°
2026-05-05 10:55 -2.15037 -79.88423 29 ft 0 kts 299°
2026-05-05 10:55 -2.15036 -79.88423 29 ft 0 kts 299°